| time (UTC) | temp F | wind direction | speed MPH | gust MPH | rain 1hr in | rain 24hr in | rain mn in | humidity % | barometer mb |
| 20260507154521 | 89 | 171 | 5.0 | 14.0 | 0.00 | 0.00 | 0.00 | 72 | 1016.8 |
| 20260507153020 | 88 | 118 | 6.0 | 18.0 | 0.00 | 0.00 | 0.00 | 75 | 1016.8 |
| 20260507151520 | 87 | 148 | 8.0 | 16.0 | 0.00 | 0.00 | 0.00 | 76 | 1016.8 |
| 20260507150020 | 87 | 95 | 6.0 | 15.0 | 0.00 | 0.00 | 0.00 | 77 | 1016.9 |
| 20260507144516 | 87 | 94 | 6.0 | 12.0 | 0.00 | 0.00 | 0.00 | 77 | 1016.9 |
| 20260507143016 | 88 | 113 | 4.0 | 13.0 | 0.00 | 0.00 | 0.00 | 74 | 1017.0 |
| 20260507141523 | 89 | 115 | 2.0 | 10.0 | 0.00 | 0.00 | 0.00 | 74 | 1017.1 |
| 20260507140022 | 87 | 132 | 5.0 | 10.0 | 0.00 | 0.00 | 0.00 | 76 | 1017.0 |
| 20260507134508 | 87 | 107 | 3.0 | 12.0 | 0.00 | 0.00 | 0.00 | 75 | 1017.0 |
| 20260507133022 | 87 | 69 | 1.0 | 8.0 | 0.00 | 0.00 | 0.00 | 75 | 1016.8 |
| 20260507131520 | 86 | 75 | 3.0 | 9.0 | 0.00 | 0.00 | 0.00 | 77 | 1017.0 |
| 20260507130021 | 86 | 136 | 2.0 | 9.0 | 0.00 | 0.00 | 0.00 | 78 | 1016.8 |
| 20260507124523 | 86 | 144 | 2.0 | 9.0 | 0.00 | 0.00 | 0.00 | 79 | 1016.7 |
| 20260507123011 | 86 | 23 | 2.0 | 6.0 | 0.00 | 0.00 | 0.00 | 79 | 1016.6 |
| 20260507121522 | 84 | 48 | 0.0 | 3.0 | 0.00 | 0.00 | 0.00 | 81 | 1016.4 |
| 20260507120022 | 82 | 17 | 1.0 | 3.0 | 0.00 | 0.00 | 0.00 | 84 | 1016.2 |
| 20260507114523 | 79 | 63 | 1.0 | 4.0 | 0.00 | 0.00 | 0.00 | 87 | 1016.1 |
| 20260507113023 | 77 | 34 | 0.0 | 3.0 | 0.00 | 0.00 | 0.00 | 89 | 1016.0 |
| 20260507111523 | 74 | 26 | 0.0 | 2.0 | 0.00 | 0.00 | 0.00 | 91 | 1016.1 |
| 20260507110022 | 73 | 24 | 0.0 | 2.0 | 0.00 | 0.00 | 0.00 | 91 | 1016.3 |
| 20260507104524 | 73 | 24 | 0.0 | 2.0 | 0.00 | 0.00 | 0.00 | 91 | 1016.0 |
| 20260507103026 | 73 | 24 | 1.0 | 4.0 | 0.00 | 0.00 | 0.00 | 91 | 1015.9 |
| 20260507101517 | 73 | 20 | 0.0 | 4.0 | 0.00 | 0.00 | 0.00 | 90 | 1015.7 |
| 20260507100019 | 73 | 38 | 1.0 | 3.0 | 0.00 | 0.00 | 0.00 | 91 | 1015.5 |
| 20260507094504 | 72 | 24 | 0.0 | 1.0 | 0.00 | 0.00 | 0.00 | 91 | 1015.3 |
| 20260507093009 | 72 | 26 | 0.0 | 1.0 | 0.00 | 0.00 | 0.00 | 91 | 1015.3 |
| 20260507091514 | 72 | 26 | 0.0 | 1.0 | 0.00 | 0.00 | 0.00 | 91 | 1015.3 |
| 20260507090019 | 73 | 26 | 0.0 | 2.0 | 0.00 | 0.00 | 0.00 | 91 | 1015.4 |
| 20260507084528 | 73 | 26 | 0.0 | 1.0 | 0.00 | 0.00 | 0.00 | 91 | 1015.4 |
| 20260507083007 | 73 | 25 | 0.0 | 1.0 | 0.00 | 0.00 | 0.00 | 90 | 1015.5 |
| 20260507081519 | 73 | 23 | 0.0 | 1.0 | 0.00 | 0.00 | 0.00 | 91 | 1015.4 |
| 20260507080015 | 73 | 23 | 0.0 | 2.0 | 0.00 | 0.00 | 0.00 | 91 | 1015.3 |
| 20260507074521 | 73 | 24 | 0.0 | 0.0 | 0.00 | 0.00 | 0.00 | 91 | 1015.3 |
| 20260507073022 | 73 | 23 | 0.0 | 2.0 | 0.00 | 0.00 | 0.00 | 91 | 1015.3 |
| 20260507071507 | 74 | 38 | 0.0 | 3.0 | 0.00 | 0.00 | 0.00 | 91 | 1015.5 |
| 20260507070018 | 74 | 38 | 0.0 | 0.0 | 0.00 | 0.00 | 0.00 | 91 | 1015.5 |
| 20260507064519 | 74 | 38 | 0.0 | 3.0 | 0.00 | 0.00 | 0.00 | 91 | 1015.7 |
| 20260507063020 | 74 | 42 | 0.0 | 2.0 | 0.00 | 0.00 | 0.00 | 91 | 1016.0 |
| 20260507061504 | 75 | 44 | 0.0 | 3.0 | 0.00 | 0.00 | 0.00 | 90 | 1016.1 |
| 20260507060009 | 75 | 51 | 0.0 | 2.0 | 0.00 | 0.00 | 0.00 | 90 | 1016.4 |
| 20260507054514 | 75 | 52 | 0.0 | 2.0 | 0.00 | 0.00 | 0.00 | 90 | 1016.6 |
| 20260507053020 | 75 | 52 | 0.0 | 3.0 | 0.00 | 0.00 | 0.00 | 90 | 1016.7 |
| 20260507051522 | 75 | 65 | 0.0 | 2.0 | 0.00 | 0.00 | 0.00 | 90 | 1016.9 |
| 20260507050006 | 75 | 75 | 0.0 | 1.0 | 0.00 | 0.00 | 0.00 | 90 | 1017.0 |
| 20260507044529 | 75 | 77 | 0.0 | 2.0 | 0.00 | 0.00 | 0.00 | 90 | 1017.2 |
| 20260507043016 | 76 | 74 | 0.0 | 1.0 | 0.00 | 0.00 | 0.00 | 90 | 1017.4 |
| 20260507041522 | 76 | 74 | 0.0 | 1.0 | 0.00 | 0.00 | 0.00 | 90 | 1017.6 |
| 20260507040031 | 76 | 74 | 0.0 | 1.0 | 0.00 | 0.00 | 0.00 | 90 | 1017.8 |
| 20260507034510 | 76 | 74 | 0.0 | 2.0 | 0.00 | 0.00 | 0.00 | 90 | 1017.9 |
| 20260507033014 | 76 | 78 | 0.0 | 1.0 | 0.00 | 0.00 | 0.00 | 90 | 1018.0 |
| 20260507031517 | 76 | 78 | 0.0 | 1.0 | 0.00 | 0.00 | 0.00 | 90 | 1018.2 |
| 20260507030023 | 77 | 78 | 0.0 | 1.0 | 0.00 | 0.00 | 0.00 | 90 | 1018.3 |
| 20260507024524 | 77 | 78 | 0.0 | 1.0 | 0.00 | 0.00 | 0.00 | 90 | 1018.3 |
| 20260507023010 | 77 | 78 | 0.0 | 1.0 | 0.00 | 0.00 | 0.00 | 89 | 1018.1 |
| 20260507021520 | 77 | 78 | 0.0 | 2.0 | 0.00 | 0.00 | 0.00 | 89 | 1017.9 |
| 20260507020037 | 78 | 95 | 0.0 | 1.0 | 0.00 | 0.00 | 0.00 | 89 | 1018.0 |
| 20260507014525 | 78 | 96 | 0.0 | 2.0 | 0.00 | 0.00 | 0.00 | 89 | 1017.9 |
| 20260507013029 | 78 | 99 | 0.0 | 3.0 | 0.00 | 0.00 | 0.00 | 89 | 1017.8 |
| 20260507011515 | 78 | 99 | 0.0 | 1.0 | 0.00 | 0.00 | 0.00 | 89 | 1017.6 |
| 20260507010026 | 78 | 99 | 0.0 | 0.0 | 0.00 | 0.00 | 0.00 | 89 | 1017.4 |
| 20260507004530 | 79 | 99 | 0.0 | 3.0 | 0.00 | 0.00 | 0.00 | 89 | 1017.4 |
| 20260507003028 | 79 | 99 | 0.0 | 3.0 | 0.00 | 0.00 | 0.00 | 88 | 1017.3 |
| 20260507001536 | 80 | 47 | 0.0 | 0.0 | 0.00 | 0.00 | 0.00 | 87 | 1017.1 |
| 20260507000016 | 80 | 46 | 0.0 | 0.0 | 0.00 | 0.00 | 0.00 | 87 | 1017.0 |
| 20260506234522 | 81 | 47 | 0.0 | 2.0 | 0.00 | 0.00 | 0.00 | 87 | 1016.8 |
| 20260506233026 | 81 | 30 | 0.0 | 6.0 | 0.00 | 0.00 | 0.00 | 87 | 1016.6 |
| 20260506231529 | 81 | 74 | 2.0 | 8.0 | 0.00 | 0.00 | 0.00 | 86 | 1016.4 |
| 20260506230017 | 82 | 74 | 2.0 | 9.0 | 0.00 | 0.00 | 0.00 | 85 | 1016.3 |
| 20260506224521 | 82 | 90 | 3.0 | 8.0 | 0.00 | 0.00 | 0.00 | 85 | 1016.2 |
| 20260506223022 | 83 | 140 | 3.0 | 10.0 | 0.00 | 0.00 | 0.00 | 84 | 1016.0 |
| 20260506221523 | 83 | 117 | 6.0 | 13.0 | 0.00 | 0.00 | 0.00 | 83 | 1015.9 |
| 20260506220026 | 84 | 132 | 7.0 | 13.0 | 0.00 | 0.00 | 0.00 | 81 | 1015.7 |
| 20260506214516 | 84 | 76 | 4.0 | 16.0 | 0.00 | 0.00 | 0.00 | 80 | 1015.6 |
| 20260506213019 | 85 | 150 | 7.0 | 18.0 | 0.00 | 0.00 | 0.00 | 79 | 1015.7 |
| 20260506211523 | 86 | 93 | 7.0 | 14.0 | 0.00 | 0.00 | 0.00 | 76 | 1015.5 |
| 20260506210028 | 86 | 126 | 6.0 | 14.0 | 0.00 | 0.00 | 0.00 | 76 | 1015.5 |
| 20260506204528 | 87 | 162 | 9.0 | 15.0 | 0.00 | 0.00 | 0.00 | 74 | 1015.4 |
| 20260506203020 | 87 | 132 | 6.0 | 16.0 | 0.00 | 0.00 | 0.00 | 74 | 1015.3 |
| 20260506201520 | 87 | 128 | 7.0 | 15.0 | 0.00 | 0.00 | 0.00 | 73 | 1015.3 |
| 20260506200024 | 87 | 111 | 7.0 | 16.0 | 0.00 | 0.00 | 0.00 | 72 | 1015.5 |
| 20260506194526 | 87 | 132 | 8.0 | 23.0 | 0.00 | 0.00 | 0.00 | 73 | 1015.6 |
| 20260506193016 | 88 | 143 | 7.0 | 14.0 | 0.00 | 0.00 | 0.00 | 73 | 1015.7 |
| 20260506191518 | 88 | 119 | 6.0 | 18.0 | 0.00 | 0.00 | 0.00 | 68 | 1015.7 |
| 20260506190006 | 89 | 145 | 7.0 | 17.0 | 0.00 | 0.00 | 0.00 | 71 | 1015.8 |
| 20260506184509 | 88 | 130 | 7.0 | 16.0 | 0.00 | 0.00 | 0.00 | 71 | 1015.8 |
| 20260506183013 | 89 | 148 | 8.0 | 14.0 | 0.00 | 0.00 | 0.00 | 70 | 1015.9 |
| 20260506181518 | 89 | 144 | 7.0 | 14.0 | 0.00 | 0.00 | 0.00 | 70 | 1016.1 |
| 20260506180026 | 89 | 160 | 9.0 | 15.0 | 0.00 | 0.00 | 0.00 | 68 | 1016.5 |
| 20260506174503 | 90 | 169 | 7.0 | 16.0 | 0.00 | 0.00 | 0.00 | 68 | 1016.7 |
| 20260506173010 | 89 | 94 | 6.0 | 16.0 | 0.00 | 0.00 | 0.00 | 69 | 1017.0 |
| 20260506171518 | 88 | 105 | 8.0 | 18.0 | 0.00 | 0.00 | 0.00 | 69 | 1017.1 |
| 20260506170018 | 88 | 157 | 8.0 | 16.0 | 0.00 | 0.00 | 0.00 | 69 | 1017.5 |
| 20260506164505 | 89 | 153 | 5.0 | 16.0 | 0.00 | 0.00 | 0.00 | 72 | 1017.7 |
| 20260506163009 | 88 | 165 | 10.0 | 16.0 | 0.00 | 0.00 | 0.00 | 70 | 1017.7 |
| 20260506161512 | 89 | 124 | 8.0 | 14.0 | 0.00 | 0.00 | 0.00 | 71 | 1017.8 |
| 20260506160017 | 88 | 146 | 6.0 | 15.0 | 0.00 | 0.00 | 0.00 | 73 | 1017.8 |